Wind_Speed
11 11 11 11 11 11 11 11 11 11 11 11 11 11 11 11 12 13 14 14 14 15 14 14 14 14 14 14 15 15 15 16 16 16 17 17 18 19
12 12 13 13 13 13 13 13 12 13 13 12 12 12 12 13 13 14 15 14 15 15 15 16 16 15 16 16 16 17 18 18 18 18 19 19 20 20
14 14 14 15 14 14 14 14 14 14 14 14 15 15 14 14 14 15 16 16 16 17 17 17 17 17 17 17 18 19 20 20 21 21 21 21 22 22
16 15 15 15 16 16 16 16 16 16 16 15 16 16 15 15 16 16 16 17 18 18 19 19 20 20 20 20 20 21 21 22 22 22 23 23 23 24
18 17 17 17 17 17 18 18 18 18 17 17 17 18 17 17 17 18 19 19 20 20 21 21 22 22 23 23 23 23 23 24 24 25 25 25 24 25
20 19 19 19 19 19 19 19 19 19 19 19 18 18 18 19 19 19 21 21 21 21 22 23 24 24 24 25 25 25 25 25 26 26 27 26 26 26
20 21 21 21 20 20 20 20 20 20 20 20 20 20 20 20 20 21 22 22 22 23 25 25 26 27 27 27 27 27 27 27 27 27 27 27 28 28
21 21 22 22 22 22 22 21 21 21 22 22 22 22 22 22 22 23 23 24 24 24 25 25 27 28 28 28 28 28 28 28 28 28 28 29 29 30
23 22 22 23 23 23 23 22 22 23 23 24 24 23 23 23 24 24 25 25 25 25 25 26 27 28 28 28 28 29 29 29 29 29 30 30 31 31
24 24 24 23 23 24 24 24 24 25 24 25 25 25 24 25 26 26 26 27 27 27 27 27 27 28 29 29 30 30 31 30 30 30 31 31 32 32
24 25 25 24 24 24 25 25 25 26 26 26 26 27 26 26 27 27 28 28 27 27 28 29 29 28 29 29 30 30 30 30 31 32 32 32 32 33
25 25 25 25 26 26 26 26 26 26 27 28 28 29 29 29 28 28 28 28 28 29 29 30 30 29 29 29 30 30 30 30 32 32 32 32 32 32
26 26 26 26 27 27 27 27 27 28 28 29 29 30 30 30 30 30 30 30 30 29 30 30 30 31 31 30 31 31 32 32 32 32 32 32 31 31
26 26 26 26 27 28 28 28 28 29 29 29 29 29 30 31 31 31 32 32 31 31 31 31 31 31 32 32 31 32 32 32 31 31 31 31 31 31
27 27 27 27 27 28 28 28 29 29 29 30 30 31 31 31 32 32 33 33 34 34 33 33 32 32 32 32 32 32 32 31 31 30 31 31 31 31
27 27 28 28 28 29 29 29 30 30 30 30 31 32 32 32 33 33 33 33 34 34 34 35 34 33 32 33 32 32 32 32 32 31 31 31 32 32
29 29 29 29 29 29 30 30 30 30 30 30 31 32 32 32 32 32 33 33 33 33 34 33 33 32 32 33 33 32 33 33 32 32 32 32 32 32
30 30 30 30 30 29 30 30 30 30 30 31 31 31 31 31 31 32 33 33 32 32 32 31 31 31 31 31 31 31 31 31 31 31 31 31 31 32
30 29 29 30 30 30 30 30 30 30 30 30 31 30 30 30 31 31 31 32 32 32 31 30 30 30 29 29 29 29 30 30 30 30 30 30 30 31
28 28 29 30 31 31 31 31 30 29 29 29 29 29 30 30 30 31 31 31 31 30 29 29 29 29 30 29 28 27 28 29 29 29 29 30 30 30
28 28 29 29 30 31 31 31 30 29 29 29 29 29 29 30 30 30 30 29 28 28 28 28 28 28 28 27 27 26 27 27 28 28 28 28 28 29
28 29 29 29 29 30 30 30 29 29 29 29 28 29 29 29 28 28 27 27 27 27 27 27 27 27 27 27 27 26 26 27 28 28 27 27 28 28
28 28 29 29 29 29 29 29 29 29 28 28 28 28 28 28 27 26 26 27 27 27 27 27 27 27 27 26 26 26 26 26 26 27 27 27 27 27
Wind_Direction
272 269 273 276 276 276 280 280 281 282 283 283 284 284 280 271 267 269 270 269 270 272 275 277 276 277 278 279 280 280 281 282 282 282 280 279 280 281
271 271 276 276 275 275 276 275 276 281 283 281 283 285 282 276 269 271 274 272 271 271 274 276 274 277 279 280 281 282 281 281 281 282 282 282 283 283
279 275 274 275 275 274 274 273 274 276 278 280 280 283 281 277 275 276 274 275 274 272 271 274 274 275 278 280 283 283 282 282 282 282 282 283 284 284
277 276 272 272 274 276 274 274 274 274 274 274 279 281 279 275 275 277 276 277 275 275 273 273 274 276 278 280 283 283 283 284 284 283 283 283 285 284
275 275 273 273 273 275 274 273 273 273 273 272 275 277 277 275 274 276 278 278 277 277 276 275 275 278 280 282 284 285 284 285 285 284 284 284 285 285
274 275 275 272 272 273 273 273 274 273 274 274 273 274 276 276 275 277 279 279 277 278 278 279 278 278 279 281 282 284 285 286 286 286 284 283 284 284
274 274 274 273 273 273 272 272 272 272 273 274 274 275 276 277 276 278 280 281 279 278 279 279 278 278 278 280 283 284 284 284 285 285 284 283 284 284
272 273 273 272 273 274 274 272 271 271 272 273 274 276 277 279 280 282 283 284 284 282 281 280 280 279 280 282 283 283 283 284 284 284 283 283 284 285
271 271 273 274 274 272 272 272 272 272 272 275 276 276 277 279 280 281 283 284 284 283 283 283 282 282 282 282 283 284 283 283 284 284 283 283 284 285
271 271 273 273 274 272 271 272 272 273 274 277 278 277 276 278 279 280 281 283 282 282 282 282 283 284 284 283 282 283 283 283 284 285 285 285 285 285
271 272 273 273 273 273 272 272 273 274 273 275 276 277 276 276 277 279 280 280 281 283 283 284 284 284 285 284 283 284 284 285 286 287 286 286 285 285
272 271 272 273 275 276 274 273 273 275 274 274 275 276 277 276 276 277 279 279 281 283 284 284 284 284 286 285 285 284 285 286 287 287 287 287 287 287
273 272 272 274 275 277 275 274 274 274 275 274 274 277 277 276 276 277 279 280 282 283 285 285 284 284 285 285 284 284 286 286 287 288 288 287 286 286
273 273 273 275 276 277 277 276 275 275 276 276 276 277 279 280 279 278 279 279 281 283 284 285 284 284 284 284 284 285 285 286 287 288 288 287 286 285
273 274 276 278 279 279 279 278 278 277 277 278 279 279 280 281 281 281 281 281 281 282 284 286 285 284 284 284 284 285 285 286 287 288 289 288 287 286
273 274 275 277 279 278 278 279 280 280 278 279 279 279 280 280 280 282 283 283 284 285 287 286 285 284 284 284 285 285 285 285 285 287 288 288 288 287
273 273 275 278 279 279 280 279 279 280 280 280 279 279 279 280 280 281 283 283 283 285 286 286 285 284 284 284 284 284 284 284 284 284 286 288 289 289
273 273 276 277 278 278 279 280 280 279 279 280 280 279 279 279 280 281 283 284 285 285 285 285 285 284 283 283 284 285 284 284 284 285 286 287 289 289
274 274 275 277 278 279 279 280 280 280 279 279 279 279 279 280 281 282 283 284 285 286 286 285 285 284 284 284 285 286 285 285 285 286 287 289 290 290
274 275 277 277 279 280 280 280 281 281 280 280 281 280 281 283 283 283 284 285 285 286 286 285 286 286 285 285 284 285 285 286 285 286 289 291 291 291
276 277 279 280 282 281 280 280 281 281 282 281 281 281 283 283 283 283 284 285 285 285 285 286 287 287 287 286 286 285 285 286 287 289 290 291 292 292
278 279 280 281 282 282 281 280 280 281 282 282 282 282 282 282 282 282 283 284 285 286 287 287 286 286 287 288 288 287 286 286 288 290 291 291 292 293
279 279 280 281 282 282 281 282 281 281 282 282 282 282 283 282 282 283 284 285 286 285 287 286 285 285 287 288 289 289 288 287 288 289 290 292 294 295
Height
5832 5832 5832 5832 5832 5832 5832 5832 5832 5832 5831 5831 5830 5830 5829 5829 5829 5829 5829 5829 5830 5830 5830 5830 5829 5829 5829 5829 5828 5828 5827 5827 5826 5826 5825 5825 5824 5824
5829 5829 5829 5829 5829 5829 5829 5829 5828 5828 5828 5827 5827 5826 5826 5825 5825 5825 5825 5825 5825 5826 5826 5825 5825 5825 5825 5824 5824 5823 5823 5822 5821 5821 5820 5819 5819 5818
5825 5825 5825 5825 5825 5825 5825 5825 5825 5825 5824 5824 5823 5822 5822 5822 5821 5821 5821 5821 5821 5821 5821 5821 5820 5820 5820 5820 5819 5818 5818 5817 5816 5815 5814 5813 5813 5812
5821 5821 5821 5821 5821 5821 5821 5821 5821 5820 5820 5820 5819 5818 5818 5818 5817 5817 5816 5816 5816 5816 5816 5815 5815 5815 5815 5814 5814 5813 5812 5811 5810 5809 5808 5807 5806 5805
5817 5817 5817 5817 5817 5817 5817 5816 5816 5816 5816 5815 5815 5814 5813 5813 5812 5812 5811 5811 5811 5810 5810 5810 5809 5809 5809 5808 5807 5807 5806 5804 5803 5802 5801 5800 5799 5798
5812 5812 5812 5812 5812 5812 5811 5811 5811 5811 5811 5810 5810 5809 5809 5808 5807 5807 5806 5805 5805 5804 5804 5803 5803 5802 5802 5801 5801 5800 5799 5797 5796 5795 5794 5793 5791 5790
5807 5807 5807 5807 5806 5806 5806 5806 5805 5805 5805 5805 5805 5804 5803 5802 5802 5801 5801 5800 5799 5798 5797 5797 5796 5795 5794 5794 5793 5792 5791 5790 5788 5787 5786 5785 5783 5782
5801 5801 5801 5801 5800 5800 5800 5800 5799 5799 5799 5799 5799 5798 5798 5797 5796 5795 5794 5794 5793 5792 5790 5789 5789 5788 5787 5786 5785 5784 5783 5782 5780 5779 5777 5776 5774 5773
5795 5795 5795 5794 5794 5794 5793 5793 5793 5793 5793 5793 5792 5792 5791 5791 5790 5788 5787 5786 5785 5784 5783 5782 5781 5780 5779 5778 5777 5776 5775 5774 5772 5770 5768 5767 5765 5764
5788 5788 5788 5788 5787 5787 5787 5786 5786 5786 5786 5786 5785 5785 5784 5784 5783 5782 5780 5779 5778 5777 5776 5775 5774 5772 5771 5769 5768 5767 5766 5764 5763 5761 5759 5758 5756 5754
5781 5781 5781 5781 5781 5780 5780 5779 5779 5779 5778 5778 5778 5777 5777 5776 5775 5774 5773 5772 5770 5769 5768 5767 5766 5764 5763 5761 5760 5758 5757 5755 5753 5751 5749 5748 5746 5744
5774 5774 5774 5774 5773 5773 5772 5772 5772 5771 5771 5770 5770 5769 5768 5768 5766 5765 5764 5763 5762 5761 5760 5758 5757 5756 5755 5753 5751 5749 5747 5746 5743 5741 5740 5738 5736 5734
5767 5767 5767 5766 5766 5765 5764 5764 5764 5763 5763 5762 5761 5761 5760 5758 5758 5757 5755 5755 5754 5753 5751 5749 5748 5747 5745 5744 5742 5740 5738 5736 5734 5732 5730 5728 5726 5725
5759 5759 5759 5758 5758 5757 5756 5755 5755 5755 5754 5753 5753 5752 5751 5750 5749 5747 5746 5745 5744 5743 5742 5740 5739 5737 5736 5734 5733 5731 5728 5726 5724 5723 5721 5719 5717 5715
5750 5750 5750 5750 5749 5748 5747 5746 5745 5745 5744 5744 5743 5743 5742 5741 5739 5738 5737 5735 5734 5733 5732 5730 5729 5727 5726 5724 5723 5721 5719 5717 5715 5713 5711 5709 5707 5706
5742 5742 5741 5741 5740 5739 5738 5737 5736 5735 5735 5734 5734 5733 5732 5731 5730 5729 5727 5726 5724 5723 5721 5719 5718 5717 5715 5714 5712 5711 5709 5707 5705 5703 5701 5700 5698 5696
5733 5732 5732 5732 5731 5730 5729 5728 5727 5726 5725 5725 5724 5723 5722 5721 5720 5719 5718 5716 5714 5713 5712 5709 5707 5706 5704 5703 5702 5700 5698 5697 5695 5693 5691 5690 5688 5686
5723 5723 5723 5723 5722 5721 5720 5719 5718 5717 5716 5715 5714 5713 5712 5711 5710 5709 5708 5706 5704 5703 5701 5700 5697 5696 5694 5693 5691 5689 5688 5686 5685 5683 5681 5680 5678 5676
5714 5714 5713 5713 5712 5712 5711 5710 5709 5707 5706 5705 5704 5703 5702 5702 5701 5699 5698 5696 5694 5693 5691 5689 5688 5686 5684 5683 5681 5679 5678 5676 5675 5673 5672 5670 5669 5667
5704 5704 5704 5704 5703 5702 5701 5700 5699 5698 5696 5696 5695 5694 5693 5692 5691 5690 5688 5686 5684 5682 5681 5680 5678 5676 5674 5673 5672 5671 5669 5667 5665 5664 5663 5661 5659 5657
5695 5695 5695 5694 5693 5692 5691 5690 5689 5688 5687 5687 5686 5685 5684 5683 5682 5680 5678 5676 5675 5673 5671 5670 5669 5667 5665 5664 5663 5661 5660 5658 5656 5655 5654 5653 5651 5649
5686 5686 5685 5684 5683 5682 5681 5680 5679 5679 5678 5677 5676 5676 5675 5674 5672 5671 5669 5668 5666 5665 5663 5662 5660 5658 5657 5655 5654 5653 5651 5650 5648 5647 5645 5644 5642 5640
5678 5677 5676 5675 5674 5673 5672 5671 5670 5669 5669 5668 5668 5667 5666 5665 5663 5662 5661 5659 5658 5656 5655 5653 5651 5650 5648 5647 5646 5644 5643 5642 5640 5639 5637 5635 5634 5632